Date String (YYYY-MM-DD hh:mm:ss) UTC,Instrument flags,absolute air pressure of the measurement (hPa),sample flow rate (lpm),inlet stack bypass flow (lpm),air temperature of the measurement (°C),ambient temperature measured by the external sensor (°C),aerosol sample conditioner tube jacket temperature (°C),OPC LED temperature (°C),internal box temperature (°C),relative humidity of the measurement (%),span deviation,mass concentration of particles derived from Lorenz-Mie calculation of OPC scattering (μg/m³),mass concentration of particles derived from Lorenz-Mie calculation of OPC scattering (μg/m³),mass concentration of particles derived from Lorenz-Mie calculation of OPC scattering (μg/m³)
DateTimeUTC,F1_M11,P_M11,Q1_M11,Q2_M11,T1_M11,T2_M11,T3_M11,T4_M11,T5_M11,U1_M11,ZSPAN_M11,X0_M11,X2_M11,X1_M11
2023-09-10 12:00:00,SystemResetWarning,0836.9,5.00,000.00,028.9,026.7,000.0,037.4,030.1,34.7,-000.2,0029.03,0015.80,0013.89
2023-09-10 12:01:00,SystemResetWarning,0837.0,4.99,000.00,028.9,026.9,000.0,037.3,030.1,34.7,0000.0,0028.68,0015.66,0013.87
2023-09-10 12:02:00,SystemResetWarning,0837.0,4.99,000.00,028.9,027.0,000.0,037.3,030.2,34.8,-000.1,0028.45,0015.67,0013.89
2023-09-10 12:03:00,SystemResetWarning,0836.9,5.00,000.00,028.9,027.1,000.0,037.3,030.2,34.7,-000.1,0028.37,0015.67,0013.89
2023-09-10 12:04:00,SystemResetWarning,0836.9,5.02,000.00,028.9,027.2,000.0,037.3,030.2,34.7,-000.3,0028.73,0015.65,0013.90
2023-09-10 12:05:00,SystemResetWarning,0836.9,5.00,000.00,029.0,027.3,000.0,037.3,030.3,34.7,-000.3,0028.58,0015.69,0013.90
2023-09-10 12:06:00,SystemResetWarning,0836.8,5.00,000.00,029.0,027.4,000.0,037.3,030.3,34.6,-000.2,0028.50,0015.76,0013.94
2023-09-10 12:07:00,SystemResetWarning,0836.8,5.00,000.00,029.0,027.5,000.0,037.4,030.3,34.6,-000.4,0028.70,0015.80,0013.94
2023-09-10 12:08:00,SystemResetWarning,0836.8,4.99,000.00,029.0,027.5,000.0,037.4,030.4,34.6,-000.5,0028.74,0015.76,0013.94
2023-09-10 12:09:00,SystemResetWarning,0836.8,4.99,000.00,029.0,027.6,000.0,037.4,030.4,34.6,-000.7,0028.47,0015.76,0013.94
2023-09-10 12:10:00,SystemResetWarning,0836.7,5.00,000.00,029.0,027.6,000.0,037.4,030.4,34.5,-000.6,0028.26,0015.76,0013.97
2023-09-10 12:11:00,SystemResetWarning,0836.8,5.00,000.00,029.1,027.7,000.0,037.4,030.5,34.5,-000.6,0027.48,0015.78,0013.96
2023-09-10 12:12:00,SystemResetWarning,0836.8,5.01,000.00,029.1,027.7,000.0,037.4,030.5,34.4,-000.7,0027.11,0015.83,0013.97
2023-09-10 12:13:00,SystemResetWarning,0836.7,5.00,000.00,029.1,027.7,000.0,037.4,030.6,34.4,-000.5,0027.24,0015.82,0013.96
2023-09-10 12:14:00,SystemResetWarning,0836.6,5.00,000.00,029.1,027.8,000.0,037.4,030.6,34.3,-000.5,0027.85,0015.87,0013.97
2023-09-10 12:15:00,SystemResetWarning,0836.6,5.00,000.00,029.1,027.8,000.0,037.4,030.6,34.2,-000.4,0028.48,0015.89,0013.96
2023-09-10 12:16:00,SystemResetWarning,0836.6,5.00,000.00,029.1,027.8,000.0,037.4,030.6,34.1,-000.3,0028.64,0015.91,0013.94
2023-09-10 12:17:00,SystemResetWarning,0836.6,4.99,000.00,029.2,027.8,000.0,037.5,030.6,34.0,-000.3,0028.53,0015.85,0013.92
2023-09-10 12:18:00,SystemResetWarning,0836.6,5.00,000.00,029.2,027.8,000.0,037.5,030.7,34.0,-000.3,0028.44,0015.78,0013.93
2023-09-10 12:19:00,SystemResetWarning,0836.8,5.00,000.00,029.2,027.9,000.0,037.5,030.7,33.9,-000.2,0027.69,0015.71,0013.93
2023-09-10 12:20:00,SystemResetWarning,0836.8,5.00,000.00,029.2,027.9,000.0,037.5,030.7,33.9,-000.0,0027.82,0015.74,0013.92
2023-09-10 12:21:00,SystemResetWarning,0836.8,5.00,000.00,029.2,027.3,000.0,037.5,030.7,33.8,0000.1,0027.45,0015.69,0013.90
2023-09-10 12:22:00,SystemResetWarning,0836.8,5.00,000.00,029.2,025.6,000.0,037.4,030.3,33.9,0000.1,0027.09,0015.71,0013.89
2023-09-10 12:23:00,SystemResetWarning,0836.8,5.00,000.00,029.1,024.7,000.0,037.3,030.1,34.0,0000.1,0027.43,0015.69,0013.91
2023-09-10 12:24:00,SystemResetWarning,0836.8,5.01,000.00,028.9,024.8,000.0,037.3,029.9,34.3,-000.0,0027.58,0015.65,0013.91
2023-09-10 12:25:00,SystemResetWarning,0836.8,5.01,000.00,028.8,025.1,000.0,037.3,029.8,34.6,-000.1,0027.70,0015.59,0013.90
2023-09-10 12:26:00,SystemResetWarning,0836.8,5.00,000.00,028.8,025.5,000.0,037.3,029.9,34.7,-000.3,0026.86,0015.59,0013.89
2023-09-10 12:27:00,SystemResetWarning,0836.8,5.01,000.00,028.7,025.8,000.0,037.2,029.9,34.8,-000.2,0026.40,0015.57,0013.93
2023-09-10 12:28:00,SystemResetWarning,0836.8,5.00,000.00,028.7,026.2,000.0,037.2,030.0,34.9,-000.2,0026.20,0015.59,0013.92
2023-09-10 12:29:00,SystemResetWarning,0836.8,4.97,000.00,028.7,026.4,000.0,037.2,030.0,35.0,-000.3,0025.83,0015.60,0013.95
2023-09-10 12:30:00,SystemResetWarning,0836.8,5.04,000.00,028.8,026.7,000.0,037.2,030.1,35.0,-000.5,0026.84,0015.64,0013.98
2023-09-10 12:31:00,SystemResetWarning,0836.8,4.96,000.00,029.0,026.8,000.0,037.2,030.2,34.5,-000.5,0026.48,0015.63,0013.98
2023-09-10 12:32:00,SystemResetWarning,0836.8,5.02,000.00,029.1,027.0,000.0,037.2,030.3,34.3,-000.6,0026.44,0015.72,0014.02
2023-09-10 12:33:00,SystemResetWarning,0836.8,4.99,000.00,029.2,027.1,000.0,037.2,030.3,34.2,-000.7,0026.72,0015.72,0014.03
2023-09-10 12:34:00,SystemResetWarning,0836.8,4.99,000.00,029.2,027.3,000.0,037.3,030.4,34.1,-000.7,0026.54,0015.69,0014.02
2023-09-10 12:35:00,SystemResetWarning,0836.9,5.00,000.00,029.3,027.4,000.0,037.3,030.4,34.1,-000.8,0026.26,0015.75,0014.05
2023-09-10 12:36:00,SystemResetWarning,0837.0,5.01,000.00,029.3,027.4,000.0,037.3,030.4,34.1,-000.8,0025.82,0015.81,0014.07
2023-09-10 12:37:00,SystemResetWarning,0837.0,5.01,000.00,029.3,027.5,000.0,037.4,030.4,34.1,-000.6,0026.18,0015.80,0014.08
2023-09-10 12:38:00,SystemResetWarning,0837.0,5.00,000.00,029.3,027.6,000.0,037.4,030.5,34.0,-000.7,0026.55,0015.79,0014.09
2023-09-10 12:39:00,SystemResetWarning,0837.0,5.00,000.00,029.4,027.6,000.0,037.4,030.6,34.0,-000.6,0026.69,0015.82,0014.11
2023-09-10 12:40:00,SystemResetWarning,0836.9,5.00,000.00,029.4,027.7,000.0,037.5,030.6,33.9,-000.5,0027.42,0015.88,0014.14
2023-09-10 12:41:00,SystemResetWarning,0836.8,4.99,000.00,029.4,027.7,000.0,037.5,030.6,33.9,-000.3,0026.95,0015.95,0014.14
2023-09-10 12:42:00,SystemResetWarning,0836.9,5.00,000.00,029.4,027.7,000.0,037.5,030.7,33.8,-000.3,0027.41,0016.00,0014.18
2023-09-10 12:43:00,SystemResetWarning,0836.9,5.00,000.00,029.4,027.8,000.0,037.5,030.7,33.8,-000.3,0027.29,0015.94,0014.18
2023-09-10 12:44:00,SystemResetWarning,0837.0,5.00,000.00,029.5,027.8,000.0,037.6,030.7,33.8,-000.2,0027.13,0015.96,0014.20
2023-09-10 12:45:00,SystemResetWarning,0837.0,5.00,000.00,029.5,027.8,000.0,037.6,030.7,33.7,-000.2,0027.84,0016.00,0014.25
2023-09-10 12:46:00,SystemResetWarning,0837.0,5.00,000.00,029.5,027.9,000.0,037.6,030.8,33.7,-000.0,0028.46,0016.04,0014.28
2023-09-10 12:47:00,SystemResetWarning,0837.0,5.00,000.00,029.5,027.9,000.0,037.6,030.8,33.7,-000.0,0028.65,0016.06,0014.32
2023-09-10 12:48:00,SystemResetWarning,0837.1,5.00,000.00,029.5,027.9,000.0,037.7,030.8,33.6,-000.1,0028.49,0016.07,0014.34
2023-09-10 12:49:00,SystemResetWarning,0837.2,5.01,000.00,029.5,027.9,000.0,037.7,030.8,33.6,0000.0,0028.39,0016.14,0014.38
2023-09-10 12:50:00,SystemResetWarning,0837.2,5.00,000.00,029.5,028.0,000.0,037.7,030.9,33.5,-000.1,0028.71,0016.11,0014.39
2023-09-10 12:51:00,SystemResetWarning,0837.3,5.00,000.00,029.5,027.2,000.0,037.7,030.8,33.4,-000.3,0028.31,0016.09,0014.39
2023-09-10 12:52:00,SystemResetWarning,0837.3,4.99,000.00,029.5,025.4,000.0,037.6,030.4,33.5,-000.3,0028.03,0016.04,0014.40
2023-09-10 12:53:00,SystemResetWarning,0837.2,5.00,000.00,029.4,024.7,000.0,037.5,030.2,33.6,-000.4,0027.71,0016.05,0014.39
2023-09-10 12:54:00,SystemResetWarning,0837.2,5.01,000.00,029.2,024.8,000.0,037.5,030.0,33.9,-000.5,0027.47,0016.07,0014.42
2023-09-10 12:55:00,SystemResetWarning,0837.2,5.00,000.00,029.1,025.1,000.0,037.5,029.9,34.2,-000.5,0028.59,0016.10,0014.41
2023-09-10 12:56:00,SystemResetWarning,0837.2,4.99,000.00,029.0,025.5,000.0,037.4,029.9,34.3,-000.6,0028.76,0016.10,0014.41
2023-09-10 12:57:00,SystemResetWarning,0837.2,5.00,000.00,029.0,025.9,000.0,037.4,030.0,34.4,-000.7,0028.09,0016.15,0014.41
2023-09-10 12:58:00,SystemResetWarning,0837.2,5.00,000.00,028.9,026.2,000.0,037.4,030.0,34.4,-000.6,0027.35,0016.17,0014.43
2023-09-10 12:59:00,SystemResetWarning,0837.2,5.00,000.00,028.9,026.5,000.0,037.4,030.1,34.4,-000.6,0027.45,0016.25,0014.44
